GFSCGP_con_sbcape_207.txt.gz
CAPE
0 0 0 0 0 0 0 0 0 0 21 3 0 0 342 253 47 17 46 35 6 0 0 0 0 2 0 0 0 24 177 177 168 270 359 448 124 56 448 499 454 390 375 890
0 0 0 0 0 0 0 0 0 24 0 0 0 0 0 312 168 24 2 1 10 0 0 0 0 0 0 0 0 11 98 179 233 195 220 240 354 338 412 381 247 576 392 524
0 0 0 0 0 0 0 0 0 0 0 0 3 0 0 53 280 144 15 0 0 0 0 0 0 0 0 0 0 38 114 261 194 87 387 554 247 64 254 190 102 313 394 431
0 0 0 0 0 0 0 0 0 0 0 0 0 0 0 0 71 326 161 63 25 0 0 0 0 0 0 0 0 88 233 280 148 32 484 563 306 145 99 86 70 124 323 357
0 0 0 0 0 0 0 0 0 0 0 0 0 0 0 0 1 144 308 211 71 3 0 0 0 0 0 0 0 265 351 297 203 52 243 570 349 50 40 37 52 70 246 365
0 0 0 0 0 0 0 0 0 0 0 0 0 0 0 3 12 25 208 286 147 33 0 0 0 0 0 0 0 423 374 378 233 143 325 291 377 322 508 500 426 144 121 417
0 0 0 0 0 0 0 0 0 0 0 0 0 0 0 0 0 0 179 183 232 68 10 0 0 0 0 0 0 412 365 372 369 359 545 546 360 189 334 280 314 129 211 491
0 0 0 0 0 0 0 0 0 0 0 0 0 0 0 0 24 39 91 191 215 93 54 4 0 0 6 0 0 393 380 344 375 487 457 494 719 471 131 208 396 358 137 316
0 0 0 0 0 0 0 0 0 0 0 0 0 0 0 15 571 335 212 218 212 142 64 112 2 0 0 5 0 137 549 406 379 380 373 377 509 679 649 405 270 569 393 1071
0 0 0 0 0 0 0 0 0 0 0 0 0 0 0 38 548 434 315 216 160 177 149 116 155 70 0 33 1 0 466 584 575 454 299 252 419 449 500 502 582 550 566 570
0 0 0 0 0 0 0 0 0 0 0 0 0 0 0 0 52 585 332 327 242 143 200 177 166 176 19 32 61 1 77 470 560 546 375 251 158 291 371 320 258 286 304 386
0 0 0 0 0 0 0 0 0 0 0 0 0 0 0 0 0 485 495 389 249 171 188 249 219 158 140 92 156 100 47 251 412 523 440 300 128 138 190 236 195 115 269 507
0 0 0 0 0 0 0 0 0 0 0 0 0 0 0 0 0 1 317 326 73 18 156 162 282 258 200 164 281 204 129 79 166 411 435 423 274 197 184 229 141 32 221 492
0 0 0 0 0 0 0 0 0 0 0 0 0 0 0 0 0 0 0 0 0 0 65 157 302 330 277 234 171 317 281 162 134 261 321 242 312 236 278 275 233 141 80 289
0 0 0 0 0 0 0 0 0 0 0 0 0 0 0 0 0 0 0 0 0 0 0 113 224 357 326 299 199 231 337 341 247 322 351 228 137 125 134 137 193 189 259 376
0 0 0 0 0 0 0 0 0 0 0 0 0 0 0 0 12 125 188 332 136 2 1 81 144 299 295 268 226 183 209 473 415 430 445 376 281 261 364 357 320 338 445 585
0 0 0 0 0 0 0 0 0 0 97 26 0 0 0 4 105 316 525 328 162 1 49 68 215 341 294 293 235 171 226 382 484 481 447 425 350 405 576 777 774 729 666 712
0 0 0 0 0 0 0 0 0 0 110 93 66 45 38 0 30 152 429 248 40 0 40 166 318 323 408 354 291 285 353 340 409 430 456 464 475 584 668 834 890 891 811 843
0 0 0 0 0 0 0 0 0 57 57 93 103 362 309 0 0 0 23 0 119 6 0 55 395 379 456 418 382 332 352 500 441 463 557 638 661 745 812 844 926 975 920 951
0 0 0 0 0 0 0 0 0 0 39 41 138 658 783 0 5 0 0 0 0 29 7 0 267 315 379 408 319 331 333 378 680 641 666 746 783 793 924 905 923 1016 1036 1105
0 0 0 0 0 0 0 0 11 72 36 0 152 491 782 536 496 711 0 0 0 0 2 1 220 375 394 293 339 396 388 389 561 776 734 738 823 854 893 1000 1035 1029 1051 1125
0 0 0 0 0 0 1 79 56 6 4 12 223 336 390 362 579 973 0 0 1 11 8 5 153 356 349 308 432 464 527 541 412 543 705 770 799 933 968 983 1011 1125 1215 1221
20 0 0 0 0 0 0 3 3 0 0 121 206 153 164 223 409 760 913 999 897 25 10 23 145 170 141 199 499 539 527 540 507 485 661 803 830 891 1027 1082 1099 1119 1214 1348
0 0 1 1 0 0 0 0 0 0 0 24 64 62 55 109 177 347 367 625 936 1545 1085 64 52 82 158 153 422 576 411 338 523 488 523 623 746 880 994 1104 1167 1291 1392 1454
9 3 0 1 0 0 1 0 1 4 0 1 7 24 19 15 31 67 173 374 751 1283 1567 1969 390 69 223 328 361 326 176 251 478 593 616 540 588 548 945 1060 1189 1366 1468 1522
7 5 3 4 0 14 0 0 0 10 2 0 17 20 2 0 9 38 28 86 489 639 759 1161 1556 1168 525 536 530 469 225 225 526 594 606 695 828 851 821 1116 1389 0 133 797

GFSCGP_con_sbcape_213.txt.gz
CAPE
0 0 0 0 0 0 0 0 0 0 0 298 269 335 271 346 351 432 436 376 315 257 165 212 184 101 132 322 463 670 837 842 1359 1245 1245 1638 1248 1356 1699 1579 1879 1847 1528 2217
0 0 0 0 0 0 0 0 0 0 4 130 16 72 100 435 410 481 446 409 350 267 199 181 168 82 46 220 462 742 975 963 1433 1462 1517 1579 1554 1091 1351 1691 1755 1485 1332 1858
0 0 0 0 0 0 0 0 0 0 0 15 6 0 13 251 356 402 465 447 373 268 191 205 222 132 56 102 298 682 1046 1027 1339 1251 1419 1599 1415 1317 1548 1715 1620 1325 1505 1475
0 0 0 0 0 0 0 0 0 0 0 0 3 0 0 16 411 431 464 447 427 299 200 151 219 257 200 165 139 554 1091 1094 1259 1286 1350 1780 1250 1166 1351 1800 1413 1266 1425 1259
0 0 0 0 0 0 0 0 0 0 0 0 0 0 0 6 191 440 459 470 461 372 217 94 110 162 175 124 102 194 901 1221 1442 1182 1540 1581 1603 1311 1197 1259 1485 1271 1403 1430
0 0 0 0 0 0 0 0 0 0 0 0 0 0 0 0 0 101 352 450 404 434 275 90 15 15 119 130 229 274 725 1263 1360 1098 1225 1757 1824 1491 1158 1348 1319 1069 881 1309
0 0 0 0 0 0 0 0 0 0 0 0 0 0 0 0 0 20 4 317 458 410 345 154 12 36 118 162 222 305 731 1034 992 1013 1104 1369 1775 1971 1793 1758 1424 1458 1254 991
0 0 0 0 0 0 0 0 0 0 0 0 0 0 0 0 0 0 0 1 283 396 374 266 66 49 158 165 240 349 693 1255 996 925 1267 1713 1753 1525 1568 1765 1313 1419 1350 1313
0 0 0 0 0 0 0 0 0 0 0 0 0 0 0 0 0 39 642 412 165 440 340 364 213 98 170 293 211 354 829 1265 1036 975 1361 1638 1678 1817 1732 1775 1916 1614 1766 1338
0 0 0 0 0 0 0 0 0 0 0 0 0 0 0 0 0 0 121 561 479 559 408 365 305 231 179 197 264 317 655 1175 913 991 1373 1361 1467 1578 1722 1765 1728 1580 1747 2001
0 0 0 0 0 0 0 0 0 0 0 0 0 0 0 0 0 0 0 463 676 709 541 452 326 319 317 171 154 285 595 983 1120 1566 1772 1877 1624 1469 1419 1468 1789 1852 1820 1909
0 0 0 0 0 0 0 0 0 0 0 0 0 0 0 0 0 0 0 146 761 845 711 571 385 323 422 519 336 289 706 1120 1252 1500 1860 1691 1566 1558 1528 1575 1660 1893 1994 1921
0 0 0 0 0 0 0 0 0 0 0 0 0 0 0 0 0 0 0 3 666 886 876 711 674 619 699 764 623 536 679 1003 1246 1494 1387 1441 1417 1439 1520 1508 1569 1695 1821 1899
0 0 0 0 0 0 0 0 0 0 0 0 0 0 0 0 0 0 0 0 58 940 1000 900 959 892 881 922 907 675 698 926 1168 1410 1438 1669 1376 1540 1412 1804 1807 1596 1643 1719
0 0 0 0 0 0 0 0 0 0 0 0 0 0 0 0 0 0 14 0 0 848 1024 1184 1156 1151 942 1014 1055 1025 786 833 1265 1481 1548 1730 1896 1949 1896 1953 1841 1595 1612 1401
0 0 0 0 0 0 0 0 0 0 0 0 0 0 0 381 527 403 310 82 12 350 1027 1130 1172 1316 1378 1206 1080 1120 1071 987 1204 1563 1637 1849 2016 2057 2067 2121 1931 1735 1442 1363
0 0 0 0 0 0 0 5 0 0 63 17 0 91 797 928 991 1124 1015 664 396 183 214 881 1072 1377 1326 1450 1310 1124 1236 1153 1145 1414 1632 1836 2030 2042 2079 2046 1907 1821 1807 1581
0 0 0 0 0 0 0 119 98 129 252 182 220 294 476 458 838 1010 759 545 555 353 305 397 574 1347 1437 1201 1459 1314 1258 1368 1229 1269 1475 1727 1916 1949 2032 2086 2043 2132 1755 1754
0 0 0 0 0 0 18 39 71 104 170 33 7 41 141 348 926 350 634 888 1059 710 501 554 759 602 1267 1377 1491 1510 1454 1446 1373 1354 1439 1560 1728 1787 1823 1885 1934 2001 2045 1740
0 0 0 0 0 0 10 26 64 104 171 16 7 6 3 160 750 910 607 547 1053 1379 769 429 617 658 790 1485 1499 1565 1532 1593 1583 1527 1556 1597 1710 1761 1782 1875 1989 2063 2176 2145
0 0 0 0 0 0 40 99 175 329 62 4 11 7 13 48 71 169 271 469 631 1272 1847 1216 546 962 1403 1680 1540 1526 1490 1537 1695 1735 1729 1797 1856 1885 1946 2066 2096 2136 2178 2154
0 0 0 0 0 0 0 112 99 20 3 6 7 5 18 18 4 54 146 340 624 864 1267 1807 593 1094 1444 1677 1654 1651 1587 1564 1579 1813 1849 1960 2044 1716 1633 2169 2198 2153 2279 2158
52 0 0 0 0 0 0 4 1 7 6 23 15 6 7 31 6 3 31 90 254 526 837 1450 551 1156 1455 1564 1814 1772 1748 1724 1848 1885 1984 2028 2062 1744 1998 2060 2202 1694 2074 1778
0 0 8 0 41 0 0 0 0 2 9 9 34 25 44 46 15 6 16 21 39 222 378 914 924 791 1323 1453 1498 1585 1382 1382 1657 1688 1926 1978 2035 1702 1810 1632 1621 1663 1726 1829
0 2 17 5 10 16 42 0 0 0 1 12 31 42 42 41 38 38 11 11 7 11 9 7 199 716 839 936 1214 1113 1226 1247 1193 1362 1455 1550 1549 1487 1721 1947 1770 1890 2294 1918
6 5 5 24 7 15 10 1 0 0 0 1 85 36 53 60 45 33 20 16 12 6 7 7 6 6 8 6 10 78 767 1045 1243 1236 1231 1373 1506 1616 1573 1702 1923 1219 1081 798

GFSCGP_con_sbcape_219.txt.gz
CAPE
0 0 0 3 9 36 19 3 204 78 104 521 222 168 382 576 830 880 788 993 900 619 214 127 133 1 0 0 321 894 1189 2610 1951 1480 1115 1141 1002 1060 1072 1726 2021 1605 1370 1687
0 0 0 4 34 47 8 3 74 47 215 100 177 104 545 694 592 862 904 864 933 835 398 303 307 137 0 0 122 877 1257 1981 1966 1435 2100 1287 1401 937 1009 1456 1526 1281 1827 2508
0 0 0 13 30 54 19 12 54 58 14 9 55 40 48 459 512 527 877 876 930 841 684 458 461 373 94 0 0 594 1617 1979 2478 2554 1497 1959 1713 1821 1461 1782 1627 1532 1826 2449
0 0 15 8 27 48 27 8 27 30 2 35 3 105 16 128 218 467 734 902 952 960 849 633 564 458 162 17 1 442 1552 2685 2133 2822 2215 3695 1653 1353 966 1432 1822 1483 1673 2019
0 0 14 15 7 19 17 49 45 26 31 49 38 16 111 122 263 319 573 747 922 1011 956 738 666 548 390 64 0 341 2371 2561 3027 3008 2964 2148 2573 1065 1100 1155 2643 2365 2506 2043
0 0 3 9 21 11 22 45 53 62 63 104 76 110 146 99 69 202 324 690 879 1064 1067 950 726 695 515 395 51 299 2646 3513 3042 2836 2325 3329 3451 2891 1394 1974 1857 1361 1540 2057
0 0 0 5 48 15 36 90 109 87 80 78 92 157 158 91 45 123 375 493 567 706 1015 1064 916 783 684 556 492 420 2535 3345 2579 1900 2136 2075 2712 3046 2419 2500 1691 2113 1042 1051
0 0 0 0 10 27 43 89 106 94 113 110 62 124 151 72 18 0 1 150 230 392 610 967 1047 932 731 577 610 507 2352 3290 2874 2510 3020 2977 3461 1973 2176 2715 1252 1096 981 1176
0 0 0 0 2 19 62 105 42 83 127 187 151 104 116 10 5 3 0 0 12 16 57 662 1021 1069 904 646 656 534 1937 2738 2717 2222 3164 3500 3313 3486 2303 3604 3466 1672 2588 1664
0 0 0 0 0 0 11 66 82 75 132 150 159 91 156 94 7 3 0 44 8 0 280 407 929 1128 1051 831 672 703 703 1977 1844 1794 2538 2887 2993 3318 3677 4048 3651 3319 3458 2312
0 0 0 0 0 0 0 4 78 87 92 121 186 175 105 60 76 30 22 8 0 94 561 999 957 1136 1122 927 693 756 748 1468 2082 2651 2799 3064 2224 2769 3176 2959 3224 3296 3288 3921
0 0 0 0 0 0 0 3 16 53 23 74 112 151 76 65 33 0 0 6 0 0 179 1043 1031 1084 1144 1050 826 729 1316 1500 2379 3136 3574 3205 2022 2532 2399 3277 2924 2816 3587 3014
0 0 0 41 3 0 0 0 0 8 14 72 95 59 23 11 0 0 0 0 1 0 12 614 1094 1062 1190 1125 1461 1116 1536 1549 1998 3292 2970 2559 1785 1863 2076 2494 2955 3092 3500 2991
0 0 0 17 10 0 0 0 0 0 6 1 21 63 38 35 14 2 0 0 0 15 18 323 1130 1332 1738 1969 2361 2216 1810 1510 2154 2971 2707 2827 2016 2014 1661 2777 3202 3211 3540 3418
0 2 10 0 39 9 0 0 0 0 0 2 1 26 30 9 4 43 20 22 201 207 469 330 903 1646 1640 2180 2862 2618 1840 1715 1860 2965 3002 3121 3234 3143 2993 3134 3410 3544 3488 3199
0 118 67 28 5 0 0 0 0 0 0 0 0 2 9 7 6 8 59 335 553 698 933 889 749 1324 1977 2094 2271 2684 2638 2572 2239 2971 3271 3581 3851 3720 3731 3697 3977 3970 4128 4030
0 75 58 20 15 0 0 0 0 0 0 0 0 108 367 328 233 292 321 991 1269 1295 1344 1618 1610 1180 1573 2054 2767 2705 3081 2763 2866 2853 3448 3740 4029 4023 4016 4069 4149 4448 4331 4477
0 25 39 32 96 28 17 76 0 12 462 629 736 605 506 468 488 591 1611 1268 1074 1130 1324 1450 1778 2008 1676 1584 2178 2889 2388 3548 3054 3009 3241 3641 3886 4100 4141 4227 4249 4308 4417 4467
0 0 8 46 86 84 418 413 250 261 526 362 403 281 164 313 663 1125 588 761 826 866 1099 1232 1561 2020 2322 1405 1954 3399 3157 3452 3462 3418 3312 3630 3842 3944 4133 4192 4277 4293 4259 4365
0 0 26 4 17 68 556 276 245 408 590 96 58 84 139 365 534 607 227 525 523 624 635 761 1257 1673 2082 2597 2250 3663 3864 3406 3723 3437 3575 3664 4041 4106 4212 4269 4318 4392 4396 4274
0 0 0 24 45 259 349 254 246 348 134 44 13 25 115 81 59 70 184 485 211 235 65 177 678 1538 2365 2683 2275 3294 4060 3928 3420 3745 3749 4067 4093 4309 4321 4462 4545 4523 4474 3576
0 0 0 0 61 252 402 343 368 152 87 30 79 66 85 84 59 50 98 158 109 24 5 3 23 1083 2482 2299 2748 3932 4307 4106 4173 3801 4129 4070 4191 3794 3615 4516 4573 4609 4599 4479
75 178 319 256 522 645 463 326 88 65 5 77 114 47 131 143 100 98 140 56 41 10 6 2 2 519 885 1257 2848 2706 3661 4105 4287 4311 4215 4162 4179 3962 3986 4375 4410 4018 4353 3496
4 0 82 21 182 183 79 286 150 114 162 122 7 37 212 190 101 48 53 49 15 8 18 2 6 9 10 34 572 1572 2938 3077 3184 3571 3918 4053 4057 3805 4018 2857 3248 3228 3198 3069
19 49 23 2 5 65 119 181 51 37 92 141 129 55 178 223 88 9 11 18 13 14 10 4 4 8 10 10 7 18 426 1230 2695 3078 2970 3192 2844 2904 3171 3400 2854 2911 3381 2652
20 36 42 45 113 41 89 26 4 4 42 109 129 152 78 307 156 1 7 6 8 11 12 11 6 4 5 7 7 6 6 34 981 2352 2561 2593 2519 2591 2683 2903 3102 2412 1608 829

GFSCGP_con_sbcape_222.txt.gz
CAPE
0 0 0 0 0 0 1 34 133 46 10 48 30 73 23 253 534 672 503 675 779 333 21 66 6 0 0 23 1036 1988 2522 3299 2673 2917 2010 1792 1732 2375 2436 2595 2757 2440 2301 2293
2 1 0 0 0 0 7 20 153 155 53 61 139 135 185 161 380 583 793 790 487 449 161 208 234 0 0 74 1069 2188 2650 2740 3004 2317 2595 2213 2479 2209 2391 2247 2930 2429 2363 2735
0 0 0 0 0 3 16 39 127 84 83 69 224 362 176 475 447 633 627 917 807 590 386 438 436 67 5 66 947 1926 2623 2665 2720 3218 2923 2495 3148 3404 2373 2568 2533 2726 2990 3724
0 0 0 0 0 2 17 47 10 117 29 89 29 77 820 745 409 420 683 836 936 862 815 742 644 582 102 83 595 1619 2289 2867 2472 3516 2806 3151 2843 2572 2891 2230 2651 2709 3068 3166
0 0 0 0 0 0 11 32 4 11 50 58 49 45 57 276 542 361 376 926 886 1073 923 673 620 819 525 19 70 1148 1930 3018 2115 3086 3847 3230 3847 2857 2607 2502 3726 2990 4015 3488
0 0 0 0 3 0 3 11 32 40 63 81 66 80 113 297 317 461 413 703 930 1030 1111 999 964 947 778 218 84 678 1690 3067 2763 2894 3328 3685 3176 3423 2692 2546 2322 2844 2711 3399
0 0 0 0 0 23 3 40 62 106 92 55 78 66 118 45 3 116 565 649 792 1265 1214 1248 1075 1076 946 568 160 390 1794 2427 2636 2613 2899 3590 3660 4040 3786 3620 2484 2233 2256 2512
0 0 0 0 0 4 32 49 91 88 87 62 34 38 124 88 53 164 342 461 719 641 1012 1190 1191 1201 1111 1007 418 481 1988 2226 2475 2774 2489 3224 3721 3102 3199 3546 2789 3432 2699 3395
0 0 0 0 0 1 1 113 33 69 113 100 59 47 99 151 18 20 214 505 302 537 608 1183 1247 1269 1252 1073 1158 591 2062 2375 2760 2591 2586 2834 3253 3437 3001 3818 3960 3161 3780 3681
0 0 0 0 0 0 0 4 50 83 123 52 61 96 12 166 116 99 30 39 136 83 5 318 1299 1434 1320 1174 1174 1225 1951 2439 2600 2712 2797 2937 2588 2981 3636 3951 4204 3137 3894 3880
0 0 0 0 0 0 0 5 25 77 124 85 105 99 89 65 0 73 66 148 25 20 86 734 1141 1579 1445 1208 1030 1124 1526 2368 2694 2722 2933 3024 2994 2735 2849 3399 4298 2917 3906 4295
0 0 0 0 0 0 0 9 16 83 90 69 110 76 34 11 6 87 94 167 0 0 10 797 1216 1684 1570 1380 1134 1099 1116 2237 2298 2532 2753 2874 3066 2776 2418 2885 3697 4010 3571 4646
0 0 0 0 0 0 0 3 0 2 71 213 201 23 0 0 0 24 70 35 117 85 85 574 1412 1598 1774 1692 1534 1258 1347 1507 2032 2487 2579 2815 2818 2538 2452 2460 3144 3597 3430 3556
0 0 0 0 0 0 7 0 0 0 15 124 29 18 276 27 11 2 41 172 128 396 814 1019 1962 1636 3060 2147 2144 1849 1628 1567 2121 2355 2554 2917 2641 2396 2268 2682 2729 3236 3397 3303
0 0 0 0 0 1 4 0 0 0 0 16 33 10 45 15 160 48 170 266 572 979 1225 1772 1576 2086 2484 3351 2603 2522 1871 1695 1974 2444 2622 2743 3057 2538 2364 2472 2864 2696 3051 3080
0 0 0 0 0 0 0 11 0 0 0 0 1 7 1095 793 37 8 564 353 890 1383 1477 1837 2013 2623 2252 3124 3602 2821 2416 2444 2232 2513 2604 2941 2887 2879 2497 2559 2518 3073 2812 2842
16 4 88 11 3 3 1 0 2 0 1 18 40 961 1062 1164 1188 1744 1467 1303 1194 1083 1261 1428 1630 2018 2530 2586 3530 3190 3161 2707 2527 2565 2964 2990 3074 3000 2853 2734 2996 2664 3321 3066
74 101 82 42 87 38 0 0 0 359 792 861 798 710 646 713 992 984 800 1051 1051 991 1015 1040 1212 1481 1600 2070 2866 3349 2710 3561 2506 2604 2538 3106 3213 3134 2888 3143 3089 3300 2941 3262
0 46 119 77 54 14 9 198 431 295 504 423 500 472 371 521 999 329 246 480 652 608 609 670 748 1035 1302 1713 2336 3017 3466 2889 3318 2455 2634 2929 3170 3266 3431 3176 3249 3334 3308 3600
0 0 21 53 33 83 634 349 332 484 450 193 276 172 238 431 508 124 57 212 438 345 283 243 226 629 1116 1921 2914 3436 3436 3338 2969 3550 2942 2962 3354 3249 3351 3565 3501 3461 3610 3425
0 0 0 67 15 431 336 240 11 241 207 148 244 161 189 186 112 74 72 157 136 131 111 23 17 175 910 1764 1905 2348 3817 3366 3417 3331 3822 3420 3383 3393 3563 3599 3846 3797 3789 3681
18 8 1 0 25 240 468 434 247 272 193 268 313 244 319 224 253 132 117 250 45 90 38 4 5 6 128 296 508 1676 4059 3997 4727 3823 3612 3966 3602 3611 3323 3768 3709 3916 3871 3859
192 289 553 557 803 807 590 577 378 407 399 262 191 233 235 244 247 177 113 80 23 20 2 7 7 7 5 6 4 162 978 1343 2555 4853 4118 3633 4139 3815 3691 3774 3705 3822 3912 3815
137 30 135 208 229 568 451 468 484 357 248 234 227 186 109 214 186 136 55 3 4 6 5 6 7 8 6 7 5 6 9 19 931 3860 4438 4309 4035 3876 3844 3545 3491 3708 3749 3801
11 2 46 129 95 143 271 235 91 8 17 49 74 135 231 322 175 114 40 4 0 8 11 4 5 8 6 4 5 5 5 3 68 1472 3738 3722 3652 3489 3629 3672 3326 3155 3656 3484
14 1 26 5 5 7 29 4 10 0 0 1 61 52 189 364 249 120 50 9 0 5 14 11 8 4 6 4 1 2 1 3 16 846 1917 2570 2619 2700 2855 3147 3430 2771 2134 2139

GFSCGP_con_sbcape_225.txt.gz
CAPE
0 0 0 0 0 0 0 0 178 70 161 56 13 0 0 21 25 54 352 285 238 1 0 0 0 0 133 74 34 890 946 978 837 763 1383 319 337 1186 1818 1337 1020 1047 1003 2341
0 0 0 0 0 0 0 0 176 79 117 10 3 26 39 6 43 180 144 364 358 36 0 0 0 0 8 103 26 1115 1001 1564 606 1141 1062 592 605 1364 1169 1036 743 1054 1558 1953
0 0 0 0 0 0 0 0 144 180 190 69 62 26 75 13 136 391 228 257 522 168 7 7 0 0 0 137 90 1124 1193 1427 1199 1049 1281 1740 1855 1223 1191 1176 809 1196 1560 1879
0 0 0 0 0 0 0 0 27 71 27 59 109 77 174 59 45 617 147 33 422 324 48 30 0 0 0 171 293 1078 1052 1022 995 1599 1215 1125 1261 1079 899 885 963 1160 1552 2393
0 0 0 0 0 0 0 0 0 43 0 0 144 34 198 116 43 184 410 268 510 427 115 50 19 0 0 119 422 1082 1498 1189 433 1465 2011 1652 2225 917 1434 1399 1267 1256 1476 1763
0 0 0 0 0 0 0 0 0 4 0 0 1 35 16 205 284 219 332 716 776 526 300 149 88 6 0 15 415 998 1744 1436 944 1396 1856 2135 1028 1933 1474 1561 1648 1695 1512 1791
0 0 0 0 0 0 0 0 0 1 1 2 20 0 150 361 347 129 19 919 961 783 552 374 184 244 11 0 145 957 1249 1740 1313 1603 1955 1854 1403 1993 1754 1384 1813 1495 1259 1603
0 0 0 0 0 0 0 0 0 17 6 28 9 5 54 147 70 106 85 303 947 928 748 520 407 442 261 1 0 700 851 1803 1339 1823 1716 1928 2443 2423 2160 1716 1137 1308 1328 1506
0 0 0 0 0 0 0 0 0 0 0 39 27 3 157 105 55 234 393 122 799 976 906 686 674 550 409 69 2 265 730 1210 1451 1834 1440 1888 2179 2034 1893 2051 1508 2114 2319 1805
0 0 0 0 0 0 0 0 0 4 4 29 3 10 41 55 2 27 84 291 782 586 663 931 793 714 560 397 36 109 815 939 1578 1540 1490 1709 1648 2245 2102 2746 1679 1322 2346 2458
0 0 0 0 0 0 0 0 0 0 0 0 0 0 1 0 0 0 6 282 239 32 10 332 979 904 693 569 150 198 1056 1077 1615 1228 1681 1624 1474 1711 1945 2082 2775 2658 1467 2644
0 0 0 0 0 0 0 0 0 0 0 0 0 0 12 0 0 0 0 0 0 11 293 791 904 999 884 687 693 271 1309 1418 1629 1516 1590 1622 1889 1397 1561 1842 2025 3165 1889 2774
0 0 0 0 0 0 0 0 0 0 0 0 1 7 0 29 0 0 26 115 213 403 816 1094 1067 1134 1056 817 753 784 1509 1544 1706 1850 1813 1986 1997 1915 1584 1204 1800 2347 2449 2013
0 0 0 0 0 0 0 0 0 0 0 0 0 19 23 0 0 0 12 122 1161 1282 1445 1522 1484 1345 1093 914 730 768 989 1666 1864 1939 1899 2125 2048 2076 1853 1555 1237 1966 2607 2180
0 0 0 0 0 0 0 0 0 0 0 0 0 204 603 5 0 233 518 1274 1214 1201 1300 1296 1242 1281 1772 1479 909 763 777 1688 1769 1901 1785 1725 1936 1992 1836 1607 1597 1415 2365 2286
0 0 0 0 0 0 0 0 0 0 0 0 26 947 802 925 1418 1146 1093 1035 964 929 1000 1056 1070 1031 1028 1376 1683 1611 956 967 1597 1601 1722 1613 2019 1889 1762 1528 1626 1840 1629 2259
0 2 1 0 1 0 0 0 0 0 343 408 541 975 733 957 1068 773 863 770 748 685 609 591 659 756 711 789 966 1569 2155 1394 1470 1608 1629 1796 1768 2151 1813 1610 1596 1737 1962 1638
10 168 59 0 6 38 5 298 535 502 565 588 627 575 874 561 365 296 569 460 316 270 263 202 207 186 331 532 830 1294 1964 2266 1664 1850 1756 1732 2138 2011 2097 1727 1659 1703 1657 2039
0 10 38 6 18 34 226 188 112 459 152 241 160 224 406 317 198 79 122 218 225 206 134 62 12 23 147 401 876 1121 1392 2091 2717 1793 1912 2139 2090 2205 2080 2019 1822 1688 1923 1661
0 0 0 0 20 106 196 101 104 311 293 217 104 201 107 376 92 104 155 70 60 56 20 0 0 0 0 1 5 187 782 1602 2771 2502 1908 2078 2375 2343 2328 2248 2079 2242 1963 2078
0 4 0 1 7 505 162 307 14 287 257 340 176 216 194 159 143 206 238 92 76 23 0 0 0 0 2 1 0 0 34 316 281 699 2436 2143 2198 2510 2446 2473 2481 2218 2314 2487
17 21 0 15 0 182 424 467 279 151 171 247 270 237 282 220 183 88 96 25 9 0 0 0 0 0 1 1 1 1 1 0 0 9 1052 2753 2410 2094 2581 2520 2573 2755 2640 2595
102 355 617 631 612 599 427 501 314 197 141 157 171 124 197 190 80 10 2 1 0 0 0 0 0 0 0 0 1 2 1 2 1 0 683 2710 2888 2695 2505 2459 2728 2635 2790 2905
0 0 160 155 8 4 9 412 446 362 114 124 131 147 194 199 118 1 0 0 0 0 0 0 0 0 0 0 0 0 0 0 1 2 383 2216 2819 3192 2840 2896 2731 2756 2699 2776
19 0 0 0 0 5 0 0 0 0 0 1 12 61 82 294 157 25 2 3 0 0 0 0 0 0 0 0 0 1 0 0 0 5 369 1529 2487 3026 3032 2990 2942 2760 2707 2791
0 0 0 0 0 0 0 0 0 0 0 0 0 14 22 213 166 58 1 0 0 0 0 0 0 0 0 0 0 0 0 0 1 2 41 231 890 1357 1878 2611 2814 2796 2488 2510

GFSCGP_con_sbcape_228.txt.gz
CAPE
0 0 0 0 0 0 0 0 72 58 211 32 6 2 1 0 0 0 78 0 0 0 0 0 0 0 24 63 14 184 144 82 520 417 703 321 463 830 923 929 917 586 1346 2131
0 0 0 0 0 0 0 1 66 125 143 23 9 2 0 0 37 18 126 258 14 0 0 0 0 37 33 0 94 380 190 130 446 178 664 25 667 1064 1069 507 335 1338 1501 1672
0 0 0 0 0 0 0 0 23 84 151 77 39 2 5 12 39 264 225 257 193 0 0 0 0 33 22 0 46 616 249 415 174 200 835 1148 1046 924 865 431 602 1131 1513 1576
0 0 0 0 0 0 0 0 7 145 55 23 42 9 64 4 4 85 154 238 76 116 0 0 0 27 20 0 91 634 788 508 230 487 624 792 1077 821 548 339 317 996 1475 1446
0 0 0 0 0 0 0 0 3 156 51 16 74 23 0 53 8 7 32 204 40 78 0 0 0 0 17 4 193 878 788 532 478 1227 1533 555 531 313 429 357 616 739 924 1700
0 0 0 0 0 0 0 0 0 22 10 0 0 7 0 63 15 33 1 44 177 118 46 1 0 0 3 12 261 1009 681 493 243 787 1043 1699 1480 822 706 581 682 699 919 1261
0 0 0 0 0 0 0 0 0 1 7 0 0 0 0 17 50 85 95 45 87 221 112 16 0 0 0 50 254 1037 574 494 372 500 864 1333 1290 1252 802 784 770 863 790 1111
0 0 0 0 0 0 0 0 0 0 0 0 0 0 0 0 63 173 159 141 245 268 196 30 3 0 5 71 250 917 927 616 652 587 804 1331 1513 1487 892 822 972 918 646 999
0 0 0 0 0 0 0 0 0 0 0 0 0 0 13 44 52 57 171 191 452 501 415 71 46 0 0 36 248 602 1194 951 880 767 864 1259 1517 1768 1446 1287 945 708 876 898
0 0 0 0 0 0 0 0 0 0 0 0 0 0 42 71 31 111 27 159 670 833 581 259 168 168 0 0 212 491 859 1078 996 747 921 1092 1351 1777 1236 1537 1312 1285 1447 1458
0 0 0 0 0 0 0 0 0 0 0 0 0 0 0 33 0 44 117 11 29 446 465 554 399 304 225 11 9 444 617 801 1131 828 1012 995 1113 1619 1521 1787 2200 1133 1169 1972
0 0 0 0 0 0 0 0 0 0 0 0 0 0 0 14 0 0 78 88 267 349 501 188 571 464 390 78 8 89 499 584 1122 941 1157 1065 1051 1069 1571 1355 1474 2017 1187 2023
0 0 0 0 0 0 0 0 0 0 0 0 0 0 0 0 130 436 637 840 942 853 1072 881 780 640 483 283 24 111 489 533 912 1028 1243 1214 1229 944 1024 1205 1205 1402 2048 1405
0 0 0 0 0 0 0 0 0 0 0 0 0 0 23 4 20 302 967 821 674 629 603 774 816 709 521 378 89 255 678 649 902 1278 1120 1421 1340 1339 966 860 828 1091 1419 1820
0 0 0 0 0 0 0 0 0 0 0 0 0 0 468 3 536 790 855 744 565 426 407 426 465 544 580 534 583 518 963 943 1110 1555 1315 1366 1487 1484 1383 1179 939 691 908 1591
0 0 0 0 0 0 0 0 0 2 0 178 610 1153 1117 1043 905 697 624 492 362 277 168 80 70 133 342 478 778 1235 730 1282 1371 1473 1657 1588 1696 1719 1709 1636 1427 1056 823 986
0 0 0 0 0 0 0 176 327 309 234 389 731 980 839 736 705 348 262 254 182 39 8 0 0 0 10 173 551 948 1410 1369 1443 1642 1673 1651 1740 1871 1862 1797 1554 1413 1274 989
0 0 0 0 0 2 58 66 298 243 150 296 564 385 434 332 248 105 50 88 49 3 0 0 0 0 0 5 11 214 862 1243 1677 1544 1637 1676 1517 1713 1753 1725 1557 1451 1490 1379
0 0 0 0 0 76 120 107 213 127 89 131 174 256 151 165 95 99 39 12 21 0 0 0 0 0 0 0 0 0 99 943 1083 1179 1424 1455 1550 1495 1834 1684 1574 1468 1379 1395
0 0 0 0 2 154 173 163 190 132 205 117 68 69 86 153 81 45 14 0 0 0 0 0 0 0 0 0 0 0 0 9 0 0 11 556 1475 1752 1632 1879 1710 1555 1470 1408
0 0 0 0 0 241 164 186 251 315 171 193 158 80 81 58 50 71 0 0 0 0 0 0 0 0 0 0 0 0 0 0 0 0 0 14 985 1717 1877 1790 1860 1751 1562 1482
0 0 66 0 43 51 341 459 302 178 142 246 99 99 49 16 12 0 0 0 0 0 0 0 0 0 0 0 0 0 0 0 0 0 0 42 616 1883 2032 2026 1923 1905 1808 1811
0 0 1 313 495 208 46 394 214 110 104 91 80 140 49 2 0 0 0 0 0 0 0 0 0 0 0 0 0 0 0 0 0 0 0 126 816 2132 1969 2216 2158 2177 2145 1991
0 0 33 3 0 0 0 0 15 65 37 88 60 56 121 29 0 0 0 0 0 0 0 0 0 0 0 0 0 0 0 0 0 0 3 264 570 741 2259 1933 2345 2280 2384 2515
3 0 0 0 0 0 0 0 0 0 0 0 22 3 203 39 0 0 0 0 0 0 0 0 0 0 0 0 0 0 0 0 0 0 1 3 52 752 1240 1910 2551 2463 2499 2445
0 0 3 8 1 0 0 0 0 0 0 0 0 0 75 99 26 0 0 0 0 0 0 0 0 0 0 0 0 0 0 0 0 1 4 2 6 158 440 455 767 1315 2028 2217